Station Historical Data
Daily Summary for March 13, 2017 Units:  English    Metric   Both
« Previous Day
Next Day »
Daily Weekly Monthly Yearly Custom
  High: Low: Average:
Temperature: 21.7 °F 11.7 °F 17.1 °F
Dew Point: 15.8 °F 5.9 °F 11 °F
Humidity: 86% 65% 77%
Wind Speed: 13.0mph 0.0mph 4mph
Wind Gust: 21.0mph - -
Wind- - ENE
Pressure: 30.53 in 30.24 in -
Precipitation: 0.00 in    
Historical Graphs
 
 
Tabular Data for March 13, 2017
Time Temperature Dew Point Pressure Wind Wind Speed Wind Gust Humidity Rainfall Rate (Hourly)
00:04 14.4 °F 6.7 °F 30.49 in Calm   3.0 mph 71% 0.00 in
00:09 14.9 °F 7.2 °F 30.49 in Calm   4.0 mph 71% 0.00 in
00:14 15.1 °F 6.8 °F 30.49 in NNW 1.0 mph 4.0 mph 69% 0.00 in
00:19 15.0 °F 7.0 °F 30.49 in NNW 1.0 mph 4.0 mph 70% 0.00 in
00:24 15.0 °F 7.0 °F 30.48 in NNW 1.0 mph 4.0 mph 70% 0.00 in
00:29 15.3 °F 6.9 °F 30.48 in North 1.0 mph 3.0 mph 69% 0.00 in
00:34 15.2 °F 6.8 °F 30.49 in NW 1.0 mph 4.0 mph 69% 0.00 in
00:39 15.1 °F 6.8 °F 30.49 in NW 1.0 mph 3.0 mph 69% 0.00 in
00:44 14.8 °F 6.8 °F 30.49 in NW 1.0 mph 3.0 mph 70% 0.00 in
00:49 14.7 °F 6.7 °F 30.49 in Calm   4.0 mph 70% 0.00 in
00:54 14.8 °F 6.8 °F 30.50 in Calm   3.0 mph 70% 0.00 in
00:59 14.6 °F 6.3 °F 30.49 in Calm   3.0 mph 69% 0.00 in
01:04 14.3 °F 6.6 °F 30.49 in Calm   2.0 mph 71% 0.00 in
01:09 14.1 °F 6.7 °F 30.50 in Calm   2.0 mph 72% 0.00 in
01:14 13.8 °F 6.4 °F 30.50 in Calm     72% 0.00 in
01:19 13.8 °F 6.7 °F 30.50 in Calm     73% 0.00 in
01:24 13.7 °F 6.6 °F 30.50 in Calm     73% 0.00 in
01:29 13.6 °F 6.5 °F 30.50 in Calm     73% 0.00 in
01:34 13.4 °F 6.4 °F 30.49 in Calm     73% 0.00 in
01:39 13.2 °F 6.5 °F 30.50 in Calm     74% 0.00 in
01:44 13.0 °F 6.3 °F 30.50 in Calm     74% 0.00 in
01:49 12.5 °F 6.1 °F 30.50 in Calm     75% 0.00 in
01:54 12.3 °F 6.5 °F 30.50 in Calm     77% 0.00 in
01:59 12.1 °F 6.3 °F 30.50 in Calm     77% 0.00 in
02:04 11.7 °F 5.9 °F 30.50 in Calm     77% 0.00 in
02:09 11.7 °F 6.2 °F 30.50 in Calm     78% 0.00 in
02:14 11.9 °F 6.4 °F 30.50 in Calm     78% 0.00 in
02:19 12.4 °F 7.1 °F 30.51 in Calm     79% 0.00 in
02:24 12.5 °F 6.9 °F 30.51 in Calm     78% 0.00 in
02:29 12.3 °F 6.5 °F 30.51 in Calm   1.0 mph 77% 0.00 in
02:34 12.4 °F 6.8 °F 30.51 in Calm   2.0 mph 78% 0.00 in
02:39 12.5 °F 6.9 °F 30.51 in Calm   2.0 mph 78% 0.00 in
02:44 12.9 °F 7.3 °F 30.51 in Calm   1.0 mph 78% 0.00 in
02:49 13.1 °F 7.5 °F 30.51 in Calm     78% 0.00 in
02:54 13.6 °F 7.7 °F 30.51 in Calm   3.0 mph 77% 0.00 in
02:59 14.2 °F 8.0 °F 30.51 in Calm   2.0 mph 76% 0.00 in
03:04 14.4 °F 7.9 °F 30.51 in NNW 1.0 mph 2.0 mph 75% 0.00 in
03:09 14.8 °F 8.0 °F 30.51 in NNW 1.0 mph 2.0 mph 74% 0.00 in
03:14 14.9 °F 8.1 °F 30.51 in NE 2.0 mph 3.0 mph 74% 0.00 in
03:19 15.0 °F 7.9 °F 30.51 in Calm   4.0 mph 73% 0.00 in
03:24 15.1 °F 8.0 °F 30.51 in NE 4.0 mph 5.0 mph 73% 0.00 in
03:29 15.2 °F 8.4 °F 30.50 in NE 2.0 mph 5.0 mph 74% 0.00 in
03:34 15.3 °F 8.2 °F 30.51 in NE 2.0 mph 7.0 mph 73% 0.00 in
03:39 15.3 °F 8.2 °F 30.51 in NNE 2.0 mph 7.0 mph 73% 0.00 in
03:44 15.3 °F 8.2 °F 30.50 in NNE 2.0 mph 5.0 mph 73% 0.00 in
03:49 15.2 °F 8.1 °F 30.50 in NNE 4.0 mph 5.0 mph 73% 0.00 in
03:54 15.2 °F 8.1 °F 30.50 in NE 1.0 mph 5.0 mph 73% 0.00 in
03:59 15.1 °F 8.0 °F 30.50 in NE 2.0 mph 3.0 mph 73% 0.00 in
04:04 15.0 °F 8.2 °F 30.50 in NE 2.0 mph 5.0 mph 74% 0.00 in
04:09 14.8 °F 8.0 °F 30.50 in NE 2.0 mph 5.0 mph 74% 0.00 in
04:14 14.7 °F 7.9 °F 30.49 in NE 2.0 mph 4.0 mph 74% 0.00 in
04:19 14.7 °F 7.9 °F 30.50 in NE 2.0 mph 5.0 mph 74% 0.00 in
04:24 14.6 °F 7.8 °F 30.50 in NE 2.0 mph 4.0 mph 74% 0.00 in
04:29 14.6 °F 7.8 °F 30.49 in NE 1.0 mph 5.0 mph 74% 0.00 in
04:34 14.6 °F 7.8 °F 30.49 in NE 2.0 mph 5.0 mph 74% 0.00 in
04:39 14.6 °F 7.8 °F 30.49 in NE 1.0 mph 4.0 mph 74% 0.00 in
04:44 14.5 °F 7.7 °F 30.49 in NE 1.0 mph 3.0 mph 74% 0.00 in
04:49 14.6 °F 7.8 °F 30.49 in NE 2.0 mph 5.0 mph 74% 0.00 in
04:54 14.7 °F 7.9 °F 30.49 in NE 2.0 mph 5.0 mph 74% 0.00 in
04:59 14.8 °F 7.7 °F 30.49 in NE 3.0 mph 6.0 mph 73% 0.00 in
05:04 14.8 °F 7.7 °F 30.49 in NE 3.0 mph 6.0 mph 73% 0.00 in
05:09 14.8 °F 7.7 °F 30.49 in NE 3.0 mph 5.0 mph 73% 0.00 in
05:14 14.8 °F 7.7 °F 30.50 in NE 2.0 mph 4.0 mph 73% 0.00 in
05:19 14.7 °F 7.6 °F 30.50 in NE 2.0 mph 4.0 mph 73% 0.00 in
05:24 14.8 °F 7.7 °F 30.50 in ENE 2.0 mph 4.0 mph 73% 0.00 in
05:29 14.6 °F 7.8 °F 30.50 in Calm   3.0 mph 74% 0.00 in
05:34 14.5 °F 8.0 °F 30.50 in NE 1.0 mph 3.0 mph 75% 0.00 in
05:39 14.1 °F 7.9 °F 30.50 in SE 1.0 mph 4.0 mph 76% 0.00 in
05:44 13.7 °F 7.5 °F 30.50 in SE 1.0 mph 4.0 mph 76% 0.00 in
05:49 13.5 °F 7.6 °F 30.49 in East 1.0 mph 3.0 mph 77% 0.00 in
05:54 13.5 °F 7.6 °F 30.49 in ENE 1.0 mph 3.0 mph 77% 0.00 in
05:59 13.5 °F 7.6 °F 30.49 in East 1.0 mph 4.0 mph 77% 0.00 in
06:04 13.5 °F 7.6 °F 30.49 in ESE 2.0 mph 4.0 mph 77% 0.00 in
06:09 13.5 °F 7.6 °F 30.50 in ESE 1.0 mph 4.0 mph 77% 0.00 in
06:14 13.5 °F 7.6 °F 30.50 in ESE 1.0 mph 4.0 mph 77% 0.00 in
06:19 13.7 °F 7.8 °F 30.50 in Calm   2.0 mph 77% 0.00 in
06:24 13.8 °F 7.6 °F 30.50 in ESE 1.0 mph 2.0 mph 76% 0.00 in
06:29 13.9 °F 7.7 °F 30.50 in ESE 1.0 mph 3.0 mph 76% 0.00 in
06:34 14.0 °F 7.8 °F 30.51 in Calm   3.0 mph 76% 0.00 in
06:39 14.1 °F 7.9 °F 30.51 in ESE 1.0 mph 2.0 mph 76% 0.00 in
06:44 14.2 °F 8.0 °F 30.51 in ENE 1.0 mph 3.0 mph 76% 0.00 in
06:49 14.4 °F 7.9 °F 30.51 in ENE 1.0 mph 3.0 mph 75% 0.00 in
06:54 14.4 °F 7.9 °F 30.52 in ENE 1.0 mph 5.0 mph 75% 0.00 in
06:59 14.5 °F 8.0 °F 30.52 in ENE 1.0 mph 5.0 mph 75% 0.00 in
07:04 14.5 °F 8.0 °F 30.52 in Calm   2.0 mph 75% 0.00 in
07:09 14.6 °F 8.1 °F 30.51 in ENE 1.0 mph 2.0 mph 75% 0.00 in
07:14 14.7 °F 8.2 °F 30.51 in NE 3.0 mph 5.0 mph 75% 0.00 in
07:19 14.8 °F 8.3 °F 30.51 in ENE 1.0 mph 4.0 mph 75% 0.00 in
07:24 14.8 °F 8.0 °F 30.51 in ENE 1.0 mph 4.0 mph 74% 0.00 in
07:29 14.8 °F 8.3 °F 30.51 in ENE 1.0 mph 3.0 mph 75% 0.00 in
07:34 14.9 °F 8.1 °F 30.51 in ENE 2.0 mph 3.0 mph 74% 0.00 in
07:39 15.0 °F 8.2 °F 30.51 in ENE 1.0 mph 3.0 mph 74% 0.00 in
07:44 15.1 °F 8.3 °F 30.52 in ENE 1.0 mph 2.0 mph 74% 0.00 in
07:49 15.1 °F 8.3 °F 30.52 in NE 2.0 mph 3.0 mph 74% 0.00 in
07:54 15.1 °F 8.3 °F 30.52 in ENE 2.0 mph 5.0 mph 74% 0.00 in
07:59 15.2 °F 8.4 °F 30.52 in ENE 2.0 mph 5.0 mph 74% 0.00 in
08:04 15.4 °F 8.6 °F 30.52 in ENE 1.0 mph 4.0 mph 74% 0.00 in
08:09 15.5 °F 8.7 °F 30.52 in ENE 2.0 mph 3.0 mph 74% 0.00 in
08:14 15.6 °F 8.5 °F 30.53 in ENE 1.0 mph 3.0 mph 73% 0.00 in
08:19 15.7 °F 8.6 °F 30.53 in SE 2.0 mph 3.0 mph 73% 0.00 in
08:24 15.6 °F 8.5 °F 30.53 in ESE 1.0 mph 3.0 mph 73% 0.00 in
08:29 15.5 °F 8.4 °F 30.53 in SE 1.0 mph 3.0 mph 73% 0.00 in
08:34 15.6 °F 8.2 °F 30.53 in SE 1.0 mph 3.0 mph 72% 0.00 in
08:39 15.8 °F 8.1 °F 30.53 in ESE 1.0 mph 3.0 mph 71% 0.00 in
08:44 16.0 °F 8.6 °F 30.53 in Calm   3.0 mph 72% 0.00 in
08:49 16.2 °F 8.4 °F 30.53 in East 1.0 mph 5.0 mph 71% 0.00 in
08:54 16.4 °F 8.6 °F 30.52 in ENE 3.0 mph 3.0 mph 71% 0.00 in
08:59 16.5 °F 8.4 °F 30.52 in ENE 2.0 mph 7.0 mph 70% 0.00 in
09:04 16.6 °F 8.5 °F 30.52 in East 3.0 mph 7.0 mph 70% 0.00 in
09:09 16.6 °F 8.5 °F 30.52 in East 3.0 mph 6.0 mph 70% 0.00 in
09:14 16.8 °F 8.4 °F 30.52 in ESE 3.0 mph 7.0 mph 69% 0.00 in
09:19 16.8 °F 8.4 °F 30.52 in Calm   4.0 mph 69% 0.00 in
09:24 16.8 °F 8.1 °F 30.52 in East 1.0 mph 8.0 mph 68% 0.00 in
09:29 16.9 °F 8.2 °F 30.51 in ENE 2.0 mph 7.0 mph 68% 0.00 in
09:34 17.0 °F 8.3 °F 30.51 in NE 5.0 mph 8.0 mph 68% 0.00 in
09:39 17.0 °F 7.9 °F 30.52 in ENE 3.0 mph 8.0 mph 67% 0.00 in
09:44 17.1 °F 8.0 °F 30.51 in ENE 3.0 mph 8.0 mph 67% 0.00 in
09:49 17.2 °F 8.4 °F 30.51 in NE 3.0 mph 7.0 mph 68% 0.00 in
09:54 17.5 °F 8.4 °F 30.50 in East 3.0 mph 5.0 mph 67% 0.00 in
09:59 17.6 °F 8.5 °F 30.50 in East 8.0 mph 8.0 mph 67% 0.00 in
10:04 17.6 °F 8.2 °F 30.50 in ENE 3.0 mph 8.0 mph 66% 0.00 in
10:09 17.6 °F 8.5 °F 30.50 in ENE 3.0 mph 8.0 mph 67% 0.00 in
10:14 17.7 °F 8.6 °F 30.49 in East 1.0 mph 10.0 mph 67% 0.00 in
10:19 18.1 °F 9.0 °F 30.49 in NNE 4.0 mph 8.0 mph 67% 0.00 in
10:24 18.1 °F 8.6 °F 30.49 in East 5.0 mph 10.0 mph 66% 0.00 in
10:29 18.0 °F 8.9 °F 30.48 in East 2.0 mph 7.0 mph 67% 0.00 in
10:34 18.0 °F 8.5 °F 30.47 in NE 2.0 mph 10.0 mph 66% 0.00 in
10:39 18.3 °F 9.2 °F 30.48 in East 4.0 mph 10.0 mph 67% 0.00 in
10:44 18.6 °F 9.1 °F 30.48 in ENE 4.0 mph 8.0 mph 66% 0.00 in
10:49 18.5 °F 9.0 °F 30.47 in ENE 4.0 mph 9.0 mph 66% 0.00 in
10:54 18.5 °F 9.4 °F 30.47 in ESE 4.0 mph 9.0 mph 67% 0.00 in
10:59 18.9 °F 10.1 °F 30.47 in ESE 3.0 mph 9.0 mph 68% 0.00 in
11:04 18.9 °F 9.4 °F 30.47 in ESE 3.0 mph 9.0 mph 66% 0.00 in
11:09 19.0 °F 9.5 °F 30.47 in ENE 4.0 mph 8.0 mph 66% 0.00 in
11:14 19.3 °F 10.1 °F 30.47 in ENE 2.0 mph 8.0 mph 67% 0.00 in
11:19 19.4 °F 10.2 °F 30.47 in East 3.0 mph 9.0 mph 67% 0.00 in
11:24 19.1 °F 9.6 °F 30.47 in SE 3.0 mph 7.0 mph 66% 0.00 in
11:29 19.7 °F 10.5 °F 30.47 in NE 4.0 mph 7.0 mph 67% 0.00 in
11:34 19.7 °F 10.2 °F 30.46 in NE 1.0 mph 9.0 mph 66% 0.00 in
11:39 20.0 °F 10.5 °F 30.46 in ESE 4.0 mph 7.0 mph 66% 0.00 in
11:44 20.1 °F 10.6 °F 30.46 in ENE 3.0 mph 7.0 mph 66% 0.00 in
11:49 20.0 °F 10.1 °F 30.46 in East 3.0 mph 9.0 mph 65% 0.00 in
11:54 20.3 °F 11.1 °F 30.45 in SSE 3.0 mph 8.0 mph 67% 0.00 in
11:59 20.0 °F 10.8 °F 30.45 in ESE 3.0 mph 8.0 mph 67% 0.00 in
12:04 20.6 °F 11.7 °F 30.45 in ESE 3.0 mph 7.0 mph 68% 0.00 in
12:09 20.5 °F 11.3 °F 30.45 in ESE 3.0 mph 8.0 mph 67% 0.00 in
12:14 20.1 °F 10.9 °F 30.45 in SE 2.0 mph 9.0 mph 67% 0.00 in
12:19 20.5 °F 10.9 °F 30.45 in NE 3.0 mph 10.0 mph 66% 0.00 in
12:24 20.5 °F 10.9 °F 30.45 in NE 3.0 mph 8.0 mph 66% 0.00 in
12:29 20.6 °F 10.7 °F 30.45 in East 7.0 mph 7.0 mph 65% 0.00 in
12:34 20.6 °F 11.4 °F 30.44 in East 1.0 mph 7.0 mph 67% 0.00 in
12:39 21.2 °F 11.9 °F 30.44 in East 2.0 mph 7.0 mph 67% 0.00 in
12:44 20.9 °F 11.3 °F 30.44 in East 5.0 mph 6.0 mph 66% 0.00 in
12:49 21.0 °F 11.8 °F 30.44 in East 3.0 mph 7.0 mph 67% 0.00 in
12:54 21.3 °F 11.7 °F 30.44 in ESE 3.0 mph 9.0 mph 66% 0.00 in
12:59 21.0 °F 11.4 °F 30.44 in East 3.0 mph 9.0 mph 66% 0.00 in
13:04 21.5 °F 11.9 °F 30.43 in East 3.0 mph 8.0 mph 66% 0.00 in
13:09 21.4 °F 11.8 °F 30.43 in ESE 2.0 mph 5.0 mph 66% 0.00 in
13:14 21.5 °F 12.2 °F 30.43 in East 2.0 mph 7.0 mph 67% 0.00 in
13:19 21.4 °F 12.5 °F 30.43 in East 6.0 mph 9.0 mph 68% 0.00 in
13:24 21.7 °F 13.1 °F 30.43 in ESE 3.0 mph 9.0 mph 69% 0.00 in
13:29 21.4 °F 12.8 °F 30.42 in ENE 5.0 mph 6.0 mph 69% 0.00 in
13:34 21.1 °F 12.5 °F 30.42 in ENE 3.0 mph 9.0 mph 69% 0.00 in
13:39 20.9 °F 13.0 °F 30.41 in ENE 4.0 mph 9.0 mph 71% 0.00 in
13:44 21.0 °F 13.4 °F 30.41 in NNE 4.0 mph 10.0 mph 72% 0.00 in
13:49 20.7 °F 13.7 °F 30.41 in NE 5.0 mph 9.0 mph 74% 0.00 in
13:54 20.6 °F 13.9 °F 30.40 in NE 5.0 mph 9.0 mph 75% 0.00 in
13:59 20.5 °F 14.1 °F 30.40 in NE 5.0 mph 10.0 mph 76% 0.00 in
14:04 20.4 °F 14.0 °F 30.40 in NE 5.0 mph 10.0 mph 76% 0.00 in
14:09 20.6 °F 14.8 °F 30.39 in NE 5.0 mph 11.0 mph 78% 0.00 in
14:14 20.6 °F 14.5 °F 30.39 in NE 5.0 mph 11.0 mph 77% 0.00 in
14:19 20.7 °F 14.9 °F 30.38 in NE 9.0 mph 9.0 mph 78% 0.00 in
14:24 20.6 °F 14.8 °F 30.37 in NE 5.0 mph 14.0 mph 78% 0.00 in
14:29 20.8 °F 15.3 °F 30.37 in NE 6.0 mph 12.0 mph 79% 0.00 in
14:34 20.6 °F 15.1 °F 30.37 in NE 8.0 mph 13.0 mph 79% 0.00 in
14:39 20.4 °F 14.9 °F 30.37 in NE 6.0 mph 9.0 mph 79% 0.00 in
14:44 20.3 °F 14.8 °F 30.37 in East 7.0 mph 11.0 mph 79% 0.00 in
14:49 20.3 °F 14.8 °F 30.37 in ENE 3.0 mph 12.0 mph 79% 0.00 in
14:54 20.2 °F 14.7 °F 30.37 in NNE 8.0 mph 13.0 mph 79% 0.00 in
14:59 20.2 °F 15.0 °F 30.37 in NE 6.0 mph 13.0 mph 80% 0.00 in
15:04 20.3 °F 15.1 °F 30.37 in NE 5.0 mph 12.0 mph 80% 0.00 in
15:09 20.1 °F 14.9 °F 30.37 in NE 6.0 mph 11.0 mph 80% 0.00 in
15:14 20.0 °F 14.8 °F 30.37 in NE 6.0 mph 14.0 mph 80% 0.00 in
15:19 19.9 °F 15.0 °F 30.36 in NE 7.0 mph 14.0 mph 81% 0.00 in
15:24 20.1 °F 15.2 °F 30.36 in NE 3.0 mph 11.0 mph 81% 0.00 in
15:29 20.3 °F 15.7 °F 30.36 in NE 11.0 mph 11.0 mph 82% 0.00 in
15:34 20.1 °F 15.2 °F 30.36 in NE 5.0 mph 11.0 mph 81% 0.00 in
15:39 20.2 °F 15.6 °F 30.35 in NE 6.0 mph 11.0 mph 82% 0.00 in
15:44 20.4 °F 15.8 °F 30.35 in NE 8.0 mph 12.0 mph 82% 0.00 in
15:49 20.0 °F 15.4 °F 30.35 in ENE 7.0 mph 13.0 mph 82% 0.00 in
15:54 20.0 °F 15.4 °F 30.35 in NE 4.0 mph 10.0 mph 82% 0.00 in
15:59 20.1 °F 15.5 °F 30.35 in NNE 5.0 mph 11.0 mph 82% 0.00 in
16:04 19.9 °F 15.3 °F 30.35 in NE 7.0 mph 14.0 mph 82% 0.00 in
16:09 19.7 °F 15.1 °F 30.35 in NE 8.0 mph 14.0 mph 82% 0.00 in
16:14 19.8 °F 15.2 °F 30.35 in NE 7.0 mph 14.0 mph 82% 0.00 in
16:19 19.6 °F 15.0 °F 30.35 in NE 6.0 mph 12.0 mph 82% 0.00 in
16:24 19.5 °F 14.9 °F 30.35 in NE 7.0 mph 12.0 mph 82% 0.00 in
16:29 19.5 °F 14.9 °F 30.34 in NE 8.0 mph 13.0 mph 82% 0.00 in
16:34 19.6 °F 15.3 °F 30.34 in NNE 7.0 mph 10.0 mph 83% 0.00 in
16:39 19.5 °F 14.9 °F 30.34 in NE 7.0 mph 15.0 mph 82% 0.00 in
16:44 19.3 °F 15.0 °F 30.34 in NE 7.0 mph 15.0 mph 83% 0.00 in
16:49 19.4 °F 15.1 °F 30.34 in NE 7.0 mph 13.0 mph 83% 0.00 in
16:54 19.2 °F 14.6 °F 30.34 in ENE 10.0 mph 14.0 mph 82% 0.00 in
16:59 19.0 °F 14.4 °F 30.34 in NE 7.0 mph 14.0 mph 82% 0.00 in
17:04 19.0 °F 14.7 °F 30.34 in NNE 5.0 mph 14.0 mph 83% 0.00 in
17:09 19.0 °F 14.4 °F 30.33 in NE 4.0 mph 15.0 mph 82% 0.00 in
17:14 19.2 °F 14.9 °F 30.33 in NE 8.0 mph 15.0 mph 83% 0.00 in
17:19 19.2 °F 14.6 °F 30.33 in NE 8.0 mph 14.0 mph 82% 0.00 in
17:24 19.3 °F 15.0 °F 30.33 in NE 8.0 mph 14.0 mph 83% 0.00 in
17:29 19.0 °F 14.4 °F 30.33 in NE 8.0 mph 15.0 mph 82% 0.00 in
17:34 18.8 °F 14.5 °F 30.33 in NE 9.0 mph 15.0 mph 83% 0.00 in
17:39 18.9 °F 14.6 °F 30.33 in NE 13.0 mph 13.0 mph 83% 0.00 in
17:44 18.8 °F 14.5 °F 30.33 in NE 8.0 mph 15.0 mph 83% 0.00 in
17:49 18.8 °F 14.5 °F 30.33 in NE 8.0 mph 15.0 mph 83% 0.00 in
17:54 18.7 °F 14.4 °F 30.33 in NE 8.0 mph 14.0 mph 83% 0.00 in
17:59 18.7 °F 14.7 °F 30.33 in NE 9.0 mph 15.0 mph 84% 0.00 in
18:04 18.7 °F 14.4 °F 30.33 in NE 12.0 mph 14.0 mph 83% 0.00 in
18:09 18.7 °F 14.4 °F 30.33 in NE 6.0 mph 14.0 mph 83% 0.00 in
18:14 18.6 °F 14.3 °F 30.33 in NE 8.0 mph 14.0 mph 83% 0.00 in
18:19 18.6 °F 14.6 °F 30.33 in ENE 9.0 mph 16.0 mph 84% 0.00 in
18:24 18.6 °F 14.3 °F 30.33 in NE 8.0 mph 16.0 mph 83% 0.00 in
18:29 18.6 °F 14.6 °F 30.33 in NE 8.0 mph 16.0 mph 84% 0.00 in
18:34 18.6 °F 14.6 °F 30.33 in NE 6.0 mph 13.0 mph 84% 0.00 in
18:39 18.5 °F 14.5 °F 30.32 in NE 7.0 mph 13.0 mph 84% 0.00 in
18:44 18.4 °F 14.4 °F 30.33 in NE 7.0 mph 13.0 mph 84% 0.00 in
18:49 18.4 °F 14.6 °F 30.32 in ENE 5.0 mph 13.0 mph 85% 0.00 in
18:54 18.3 °F 14.5 °F 30.33 in NE 8.0 mph 15.0 mph 85% 0.00 in
18:59 18.2 °F 14.4 °F 30.33 in NE 7.0 mph 15.0 mph 85% 0.00 in
19:04 18.2 °F 14.7 °F 30.33 in ENE 5.0 mph 9.0 mph 86% 0.00 in
19:09 18.2 °F 14.7 °F 30.33 in NE 8.0 mph 12.0 mph 86% 0.00 in
19:14 18.1 °F 14.6 °F 30.33 in NE 10.0 mph 13.0 mph 86% 0.00 in
19:19 18.0 °F 14.5 °F 30.33 in ENE 8.0 mph 11.0 mph 86% 0.00 in
19:24 17.9 °F 14.4 °F 30.32 in ENE 5.0 mph 11.0 mph 86% 0.00 in
19:29 17.7 °F 14.2 °F 30.32 in NE 6.0 mph 14.0 mph 86% 0.00 in
19:34 17.6 °F 14.1 °F 30.32 in NE 6.0 mph 14.0 mph 86% 0.00 in
19:39 17.5 °F 14.0 °F 30.32 in NE 7.0 mph 14.0 mph 86% 0.00 in
19:44 17.4 °F 13.9 °F 30.32 in NE 9.0 mph 16.0 mph 86% 0.00 in
19:49 17.3 °F 13.8 °F 30.32 in NE 9.0 mph 16.0 mph 86% 0.00 in
19:54 17.3 °F 13.8 °F 30.32 in NE 8.0 mph 15.0 mph 86% 0.00 in
19:59 17.3 °F 13.8 °F 30.32 in NE 4.0 mph 10.0 mph 86% 0.00 in
20:04 17.3 °F 13.8 °F 30.32 in NE 9.0 mph 13.0 mph 86% 0.00 in
20:09 17.3 °F 13.8 °F 30.32 in ENE 8.0 mph 15.0 mph 86% 0.00 in
20:14 17.2 °F 13.7 °F 30.32 in NE 13.0 mph 16.0 mph 86% 0.00 in
20:19 17.1 °F 13.6 °F 30.31 in NE 10.0 mph 16.0 mph 86% 0.00 in
20:24 17.0 °F 13.5 °F 30.31 in NE 9.0 mph 15.0 mph 86% 0.00 in
20:29 16.9 °F 13.4 °F 30.31 in NE 5.0 mph 21.0 mph 86% 0.00 in
20:34 16.9 °F 13.4 °F 30.31 in NE 8.0 mph 21.0 mph 86% 0.00 in
20:39 16.8 °F 13.3 °F 30.31 in NE 7.0 mph 15.0 mph 86% 0.00 in
20:44 16.9 °F 13.4 °F 30.31 in ENE 5.0 mph 12.0 mph 86% 0.00 in
20:49 16.9 °F 13.4 °F 30.31 in East 5.0 mph 12.0 mph 86% 0.00 in
20:54 16.9 °F 13.4 °F 30.31 in NE 11.0 mph 13.0 mph 86% 0.00 in
20:59 16.9 °F 13.4 °F 30.31 in NNE 7.0 mph 14.0 mph 86% 0.00 in
21:04 16.9 °F 13.4 °F 30.30 in NE 4.0 mph 12.0 mph 86% 0.00 in
21:09 17.0 °F 13.5 °F 30.30 in ENE 7.0 mph 14.0 mph 86% 0.00 in
21:14 17.0 °F 13.5 °F 30.30 in ENE 6.0 mph 14.0 mph 86% 0.00 in
21:19 17.1 °F 13.6 °F 30.30 in ENE 6.0 mph 13.0 mph 86% 0.00 in
21:24 17.1 °F 13.6 °F 30.30 in NE 4.0 mph 14.0 mph 86% 0.00 in
21:29 17.2 °F 13.7 °F 30.30 in NE 4.0 mph 11.0 mph 86% 0.00 in
21:34 17.3 °F 13.8 °F 30.29 in NE 5.0 mph 11.0 mph 86% 0.00 in
21:39 17.3 °F 13.8 °F 30.29 in NE 4.0 mph 11.0 mph 86% 0.00 in
21:44 17.3 °F 13.8 °F 30.29 in NE 7.0 mph 13.0 mph 86% 0.00 in
21:49 17.3 °F 13.8 °F 30.28 in ENE 9.0 mph 13.0 mph 86% 0.00 in
21:54 17.3 °F 13.8 °F 30.28 in NE 3.0 mph 12.0 mph 86% 0.00 in
21:59 17.3 °F 13.8 °F 30.28 in NE 7.0 mph 11.0 mph 86% 0.00 in
22:04 17.4 °F 13.9 °F 30.28 in NE 11.0 mph 11.0 mph 86% 0.00 in
22:09 17.5 °F 14.0 °F 30.28 in ENE 2.0 mph 11.0 mph 86% 0.00 in
22:14 17.4 °F 13.9 °F 30.28 in NE 6.0 mph 11.0 mph 86% 0.00 in
22:19 17.5 °F 14.0 °F 30.28 in NE 6.0 mph 11.0 mph 86% 0.00 in
22:24 17.4 °F 13.9 °F 30.27 in NE 7.0 mph 12.0 mph 86% 0.00 in
22:29 17.4 °F 13.9 °F 30.27 in NE 7.0 mph 15.0 mph 86% 0.00 in
22:34 17.4 °F 13.9 °F 30.27 in ENE 8.0 mph 14.0 mph 86% 0.00 in
22:39 17.3 °F 13.8 °F 30.26 in NE 5.0 mph 14.0 mph 86% 0.00 in
22:44 17.3 °F 13.8 °F 30.27 in ENE 8.0 mph 12.0 mph 86% 0.00 in
22:49 17.3 °F 13.8 °F 30.27 in NNE 10.0 mph 16.0 mph 86% 0.00 in
22:54 17.3 °F 13.8 °F 30.26 in NE 5.0 mph 16.0 mph 86% 0.00 in
22:59 17.3 °F 13.8 °F 30.27 in NE 5.0 mph 14.0 mph 86% 0.00 in
23:04 17.3 °F 13.8 °F 30.26 in ENE 10.0 mph 17.0 mph 86% 0.00 in
23:09 17.3 °F 13.8 °F 30.26 in NE 8.0 mph 17.0 mph 86% 0.00 in
23:14 17.3 °F 13.8 °F 30.26 in NE 8.0 mph 16.0 mph 86% 0.00 in
23:19 17.3 °F 13.8 °F 30.25 in NE 7.0 mph 17.0 mph 86% 0.00 in
23:24 17.4 °F 13.9 °F 30.25 in NE 8.0 mph 17.0 mph 86% 0.00 in
23:29 17.4 °F 13.9 °F 30.25 in NE 6.0 mph 11.0 mph 86% 0.00 in
23:34 17.5 °F 14.0 °F 30.25 in NE 3.0 mph 12.0 mph 86% 0.00 in
23:39 17.5 °F 14.0 °F 30.25 in ENE 8.0 mph 15.0 mph 86% 0.00 in
23:44 17.5 °F 14.0 °F 30.25 in NE 6.0 mph 15.0 mph 86% 0.00 in
23:49 17.5 °F 14.0 °F 30.25 in NE 10.0 mph 12.0 mph 86% 0.00 in
23:54 17.5 °F 14.0 °F 30.24 in NE 7.0 mph 10.0 mph 86% 0.00 in
23:59 17.5 °F 14.0 °F 30.24 in ENE 8.0 mph 11.0 mph 86% 0.00 in
Buffalo, New York, USA
Compliments of Weather Underground - 2.5 mb